Probability
0 0 0 0 1 3 3 2 2 2 2 1 0 0 0 0 0 0 0 0 0 0 0 0 0 0 0 0 0 0 1 2 2 1 0 0 1 1 1 1 1 0 0
0 0 0 0 1 2 3 2 2 2 2 2 1 1 0 0 0 0 0 0 0 0 0 0 0 0 0 0 0 0 0 1 1 0 0 0 1 2 2 2 2 1 1
0 0 0 0 1 1 3 2 1 1 2 3 3 2 1 0 0 0 0 0 0 0 0 0 0 0 0 0 0 0 0 0 0 0 0 0 1 2 2 3 3 3 2
0 0 0 0 1 2 3 2 1 0 1 2 3 3 2 1 0 0 0 0 0 0 0 0 0 0 0 0 0 0 0 0 0 0 0 0 0 1 1 1 2 2 2
0 0 0 1 2 4 4 2 1 1 0 1 1 2 2 2 1 1 1 1 1 0 0 0 1 1 0 0 0 0 0 0 0 0 0 0 0 0 0 0 1 1 1
0 0 0 1 3 5 4 3 2 1 1 1 1 1 1 2 2 2 2 2 1 0 0 0 1 2 1 1 1 1 0 0 0 0 0 0 0 0 0 0 0 0 1
0 0 0 1 2 3 2 2 1 1 1 1 2 1 0 1 1 1 1 2 1 0 0 0 1 1 1 1 2 1 0 0 0 0 0 0 0 0 0 0 0 0 1
0 0 0 0 1 1 0 0 0 0 0 1 2 1 0 0 0 0 0 1 1 0 0 0 0 0 0 0 1 1 0 0 0 0 0 0 0 0 0 0 0 0 1
0 0 0 0 0 0 0 0 0 0 0 0 1 1 0 0 0 0 0 0 0 0 0 0 0 0 0 0 0 0 0 0 0 0 0 0 0 0 0 0 0 1 2
0 0 0 0 0 0 0 0 0 0 0 0 0 0 0 0 0 0 0 0 0 0 0 0 0 0 0 0 0 0 0 0 0 0 0 0 0 0 0 0 1 2 3
0 0 0 0 0 0 0 0 0 0 0 0 0 0 0 0 0 0 0 0 0 0 0 0 0 0 0 0 0 0 0 0 0 0 0 0 0 1 1 1 2 2 3
1 0 0 0 0 0 0 0 0 0 0 0 0 0 0 0 0 0 0 0 0 0 0 0 0 0 0 0 0 0 0 0 0 0 0 0 0 1 2 3 3 2 2
2 1 0 0 0 0 0 0 0 0 0 0 0 0 0 0 0 0 0 0 0 0 0 0 0 0 0 0 0 0 0 0 0 0 0 0 1 2 3 4 4 3 2
2 1 0 0 0 0 0 0 0 0 0 0 0 0 0 0 0 0 0 0 0 0 0 0 0 0 0 0 0 0 0 0 0 0 0 0 1 2 3 4 5 3 1
2 1 0 0 0 0 0 0 0 0 0 0 0 0 0 0 0 0 0 0 0 0 0 0 0 0 0 0 0 0 0 0 0 0 0 0 1 2 3 4 5 4 1
2 1 0 0 0 0 0 0 0 0 0 0 0 0 0 0 0 0 0 0 0 0 0 0 0 0 0 0 0 0 0 0 0 0 0 0 0 1 2 4 5 4 2
3 2 1 0 0 0 1 1 0 0 0 0 0 0 0 0 0 0 0 0 0 0 0 0 0 0 0 0 0 0 0 0 0 0 0 0 0 0 1 2 4 4 2
3 3 2 1 0 0 1 1 0 0 0 0 0 0 0 0 0 0 0 0 0 0 0 0 0 0 0 0 0 0 0 0 0 0 0 0 0 0 0 1 3 3 2
3 3 3 2 1 0 1 1 0 0 0 0 0 0 0 0 0 0 0 0 0 0 0 0 0 0 0 0 0 0 0 0 0 0 0 0 0 0 0 0 1 1 1
3 3 2 2 1 1 0 0 0 0 1 1 0 0 0 0 0 0 0 0 0 0 0 0 0 0 0 0 0 0 0 0 0 0 0 0 0 0 0 0 0 0 0
3 3 2 2 2 2 1 0 0 0 1 2 1 0 0 0 0 0 0 0 0 0 0 0 0 0 0 0 0 0 0 0 0 0 0 0 0 0 0 0 0 0 0
2 2 2 1 2 2 1 0 0 0 1 2 1 0 0 0 0 0 0 0 0 0 0 0 0 0 0 0 0 0 0 0 0 0 0 0 0 0 0 0 0 0 0
1 1 1 2 2 2 1 0 0 0 0 1 1 1 0 0 0 0 0 0 0 0 0 0 0 0 0 0 0 0 0 0 0 0 0 0 0 0 0 0 0 0 0
0 0 1 2 3 3 2 1 0 0 0 1 1 1 0 0 0 0 0 0 0 0 0 0 0 0 0 0 0 0 0 0 0 0 0 0 0 0 0 0 0 0 0
0 1 2 3 3 3 2 1 0 0 0 0 0 0 0 0 0 0 0 0 0 0 0 0 0 0 0 0 0 0 0 0 0 0 0 0 0 0 0 0 0 0 0
0 1 2 3 3 3 2 1 0 0 0 0 0 0 0 0 0 0 0 0 0 0 0 0 0 0 0 0 0 0 0 0 0 0 0 0 0 0 0 0 0 0 0
Wind_Speed
2 2 5 7 9 10 11 11 11 11 11 11 11 12 12 12 12 11 11 11 10 11 11 12 12 12 12 12 11 11 12 11 12 12 12 12 11 11 11 11 10 6 10
4 4 6 7 9 10 11 11 11 11 11 11 11 11 11 12 12 11 11 10 10 10 11 11 11 11 11 11 11 11 11 11 11 11 11 10 10 10 10 10 9 6 10
6 4 5 7 9 10 10 10 11 11 11 11 11 11 11 11 11 11 10 10 9 10 10 10 10 10 10 10 10 10 10 10 10 10 9 5 5 9 9 9 9 9 9
7 5 5 7 9 10 10 10 11 10 10 10 11 10 10 10 10 10 10 9 9 9 9 9 9 9 9 9 9 9 9 9 9 8 5 4 3 7 8 8 8 8 8
6 4 5 8 9 9 9 10 10 9 9 10 10 10 10 10 10 9 9 9 8 8 8 8 8 8 8 8 8 8 8 9 9 7 4 4 3 6 7 7 7 7 8
5 4 5 8 9 9 9 9 9 9 8 8 9 9 9 9 9 9 9 8 8 8 8 8 7 7 7 7 7 7 8 8 7 4 4 3 3 5 6 6 6 6 7
5 4 5 7 8 8 8 8 8 8 8 8 8 8 8 8 8 8 8 7 7 7 7 7 7 7 6 6 7 7 7 7 5 3 3 3 3 4 5 5 6 6 6
6 5 4 6 7 7 7 8 8 8 8 8 8 7 7 8 8 7 7 6 6 6 6 7 6 6 6 7 7 7 6 6 4 3 2 2 3 4 4 4 5 5 5
6 5 4 3 4 6 7 7 7 7 7 7 7 7 7 7 7 6 6 6 6 6 6 6 6 6 6 6 7 7 7 6 3 2 2 2 3 3 3 3 4 4 5
5 4 4 3 3 3 4 6 6 6 7 6 6 7 6 6 6 6 5 5 5 5 5 5 5 5 5 5 6 6 7 6 3 2 1 1 3 3 3 3 3 4 4
4 3 3 4 3 3 3 4 5 5 6 6 5 6 5 3 3 3 4 5 5 4 4 4 4 4 5 5 6 6 5 2 2 2 1 3 3 3 2 3 3 3 3
4 3 3 4 4 4 3 3 3 3 3 3 2 3 2 2 2 3 4 5 4 4 4 4 4 4 4 2 3 4 2 2 2 1 2 3 3 3 3 3 3 2 2
6 5 4 4 4 4 3 3 2 2 2 2 2 2 2 2 2 2 2 2 2 3 2 2 3 2 2 1 1 1 1 1 1 1 2 3 2 2 2 3 3 3 3
6 5 4 4 4 4 3 3 3 2 2 2 2 3 2 2 2 1 1 1 1 1 1 1 1 1 1 1 1 1 1 1 1 1 2 4 3 2 2 3 3 3 3
6 6 6 5 5 4 4 3 3 3 2 2 2 2 3 2 2 1 1 1 1 1 1 1 1 1 1 1 1 1 1 1 1 1 1 4 4 3 3 3 3 3 3
7 7 6 6 5 5 4 3 3 3 3 2 2 2 3 2 2 2 1 1 1 1 1 1 1 0 0 0 1 1 1 1 1 1 1 2 4 4 4 4 4 3 3
7 6 7 7 6 6 5 4 3 3 3 2 2 2 2 3 3 2 2 1 1 1 1 1 1 1 1 1 1 1 1 1 1 1 1 1 2 3 4 5 5 4 4
6 6 6 6 6 6 5 4 3 3 3 2 2 2 2 2 3 2 2 1 1 1 1 1 1 1 0 1 1 1 1 1 1 1 1 1 1 1 3 4 5 5 5
6 6 6 5 6 6 5 4 3 3 3 3 3 3 3 3 3 2 2 2 2 1 1 1 1 1 1 0 1 1 1 1 1 1 1 1 1 1 1 3 4 5 6
5 5 5 5 5 4 4 3 2 3 2 2 3 3 4 3 3 3 2 2 2 1 1 1 1 1 1 1 1 1 2 1 1 1 1 1 1 1 1 1 1 3 5
4 4 5 5 4 4 3 3 3 3 2 2 2 3 4 3 4 3 2 2 2 2 2 2 1 1 1 0 1 2 2 2 1 1 1 1 1 1 1 1 1 1 2
4 4 5 4 4 4 3 3 2 3 2 3 2 2 3 3 4 3 3 3 3 2 2 2 2 1 0 1 1 1 2 3 2 2 1 1 2 1 1 1 1 1 2
3 4 4 4 4 4 3 2 2 1 1 1 2 2 3 4 4 3 3 3 3 3 3 3 3 3 2 1 1 2 1 2 3 2 2 2 1 1 2 2 2 2 2
3 2 3 3 3 3 4 4 4 3 3 3 2 2 2 3 3 3 3 3 3 3 3 3 3 2 3 2 1 1 2 2 1 3 2 2 2 2 3 2 2 3 3
3 2 3 3 3 3 3 4 4 3 2 1 1 2 2 2 3 3 3 3 3 3 3 3 3 3 3 3 3 2 1 1 1 2 4 3 3 2 3 3 3 3 3
2 2 2 3 3 3 3 3 4 4 3 2 2 2 2 1 2 3 3 3 3 3 3 3 4 4 4 3 3 2 2 2 2 2 3 4 4 3 3 3 3 3 3
Wind_Direction
178 180 150 137 130 123 121 118 113 111 107 105 103 100 97 95 93 92 89 87 86 84 81 79 78 75 72 70 70 69 67 63 63 61 61 62 63 66 66 61 57 55 62
160 166 142 135 131 125 122 120 117 114 110 108 106 104 100 98 95 93 90 88 87 86 84 81 79 77 74 71 69 69 67 63 61 57 56 56 61 65 66 62 60 61 60
140 148 142 132 131 126 123 123 121 117 115 112 109 108 105 102 98 94 90 87 86 87 86 84 80 78 76 72 68 66 65 61 57 54 50 37 52 63 63 60 58 58 57
136 137 138 129 129 127 126 125 123 119 116 114 111 110 109 105 102 98 93 90 88 88 87 85 82 77 76 73 69 65 62 60 56 50 41 26 34 60 60 59 57 55 52
125 128 131 127 129 128 128 127 126 122 119 117 115 113 112 109 105 100 95 91 89 88 86 85 83 76 74 71 68 65 62 63 55 45 33 25 26 59 61 60 58 56 52
124 123 125 124 126 126 127 129 130 126 123 121 119 119 116 112 108 102 96 92 89 88 86 86 85 78 74 70 66 64 65 63 55 41 33 24 22 52 61 61 59 57 51
126 122 128 120 121 123 125 126 131 130 127 125 122 122 120 116 109 104 100 95 90 87 86 86 82 77 72 67 65 62 62 58 59 43 30 17 20 43 55 60 58 57 51
132 126 127 124 122 123 124 123 120 124 124 121 120 119 116 112 108 104 100 97 92 89 89 87 83 77 70 64 59 56 55 52 56 43 23 12 24 42 48 55 58 57 53
126 127 128 134 133 127 121 115 110 112 114 116 118 113 106 101 98 95 91 91 91 90 89 88 82 75 69 61 56 52 49 47 50 34 21 358 21 34 43 60 61 58 53
115 125 136 132 127 133 134 118 109 105 103 104 104 100 97 94 92 87 84 81 81 86 89 88 81 71 63 55 51 49 43 42 40 34 11 356 23 32 37 48 54 52 49
119 130 138 142 139 138 137 128 121 114 105 100 95 93 91 83 88 87 80 80 78 77 86 85 76 63 55 47 44 44 38 38 37 22 0 10 23 29 31 33 39 42 41
156 159 152 149 151 146 144 134 129 121 115 106 102 104 99 92 85 87 78 79 75 73 79 75 63 52 47 34 28 33 33 36 37 3 349 6 9 12 22 22 16 19 23
170 164 164 158 155 153 148 140 136 125 122 115 113 115 109 100 91 83 82 71 67 66 64 58 51 43 40 30 25 30 41 42 26 349 344 350 352 4 13 9 6 10 9
167 173 168 163 158 158 150 150 145 144 140 137 139 137 129 117 104 106 98 93 87 80 87 74 60 38 22 7 25 35 37 37 16 354 344 348 346 352 358 355 351 351 355
174 177 174 168 166 163 154 158 152 158 156 156 154 153 141 138 142 139 129 122 128 124 133 117 82 47 18 358 18 39 25 12 351 347 338 345 340 340 340 335 335 344 341
185 182 176 174 172 164 163 165 165 164 159 154 152 153 151 145 145 151 147 154 179 179 165 158 157 148 35 28 16 11 358 335 324 329 329 338 344 347 342 340 339 339 339
189 182 179 178 171 169 170 170 164 162 155 155 158 158 152 144 146 148 154 172 199 185 160 136 112 84 61 31 4 340 339 327 314 312 323 327 332 347 348 339 335 332 330
182 181 184 178 172 174 174 173 166 161 161 163 165 167 167 160 155 151 155 179 185 164 156 153 141 116 65 18 336 325 326 322 319 318 332 326 327 334 335 340 341 339 330
179 175 176 174 174 176 174 169 165 162 168 171 171 174 178 173 164 159 170 180 168 156 161 176 158 154 165 322 306 312 313 300 289 328 319 303 309 313 319 336 342 343 334
171 169 169 168 168 169 167 158 159 158 172 173 176 182 178 178 175 168 168 173 164 158 172 177 173 149 162 199 306 318 306 292 272 268 280 286 291 298 321 329 330 328 329
156 161 166 165 166 159 163 170 176 186 185 184 182 181 180 178 176 174 174 174 173 179 191 178 159 140 104 94 41 337 322 304 290 278 278 277 284 299 313 295 303 303 307
172 175 172 172 165 168 176 175 175 174 183 186 184 186 188 183 182 184 181 183 180 175 171 169 148 150 152 134 129 48 326 320 301 284 289 271 269 291 295 294 270 289 291
177 179 177 177 167 169 163 142 125 114 112 168 191 196 197 192 189 188 187 181 179 178 193 194 176 164 183 204 158 151 172 251 303 295 267 267 266 266 277 291 287 287 285
190 180 169 168 163 166 156 159 167 178 191 203 199 200 197 193 191 192 187 184 186 189 196 202 191 178 171 200 226 215 200 189 215 295 299 290 283 275 271 281 278 277 274
171 168 165 155 159 159 159 170 176 181 188 181 184 191 199 201 197 195 192 190 194 197 204 202 197 193 188 196 198 197 210 231 217 226 277 299 302 272 261 261 263 269 274
149 150 151 154 161 163 167 169 178 180 174 170 185 194 205 215 212 203 200 199 202 203 209 211 206 203 204 202 202 196 190 196 207 215 250 278 288 287 277 264 255 261 268